Time,TemperatureF,DewpointF,PressureIn,WindDirection,WindDirectionDegrees,WindSpeedMPH,WindSpeedGustMPH,Humidity,HourlyPrecipIn,Conditions,Clouds,dailyrainin,SoftwareType,DateUTC
2013-01-01 00:00:00,41.0,38.0,29.57,WNW,290,5.0,9.0,89,0.00,RA,,0.00,WeatherDisplay:10.37,2013-01-01 00:00:00,
2013-01-01 00:10:00,40.8,37.9,29.57,West,272,2.0,9.0,89,0.00,RA,,0.00,WeatherDisplay:10.37,2013-01-01 00:10:00,
2013-01-01 00:20:00,40.7,37.7,29.58,WNW,285,5.0,10.0,89,0.00,BKN,,0.00,WeatherDisplay:10.37,2013-01-01 00:20:00,
2013-01-01 00:30:00,40.6,37.6,29.59,WNW,284,9.0,13.0,89,0.01,RA,,0.01,WeatherDisplay:10.37,2013-01-01 00:30:00,
2013-01-01 00:40:00,40.7,38.0,29.58,West,268,8.0,18.0,90,0.00,RA,,0.01,WeatherDisplay:10.37,2013-01-01 00:40:00,
2013-01-01 00:50:00,40.6,37.9,29.59,WNW,284,5.0,12.0,90,0.00,BKN,,0.01,WeatherDisplay:10.37,2013-01-01 00:50:00,
2013-01-01 01:00:00,40.5,37.8,29.59,West,280,5.0,8.0,90,0.00,BKN,,0.01,WeatherDisplay:10.37,2013-01-01 01:00:00,
2013-01-01 01:10:00,40.4,37.7,29.60,WNW,286,6.0,8.0,90,0.00,BKN,,0.01,WeatherDisplay:10.37,2013-01-01 01:10:00,
2013-01-01 01:20:00,40.4,37.7,29.60,WNW,290,5.0,12.0,90,0.01,RA,,0.02,WeatherDisplay:10.37,2013-01-01 01:20:00,
2013-01-01 01:30:00,40.3,37.9,29.60,WNW,291,1.0,8.0,91,0.00,BKN,,0.02,WeatherDisplay:10.37,2013-01-01 01:30:00,
2013-01-01 01:40:00,40.1,37.4,29.61,West,265,3.0,6.0,90,0.00,BKN,,0.02,WeatherDisplay:10.37,2013-01-01 01:40:00,
2013-01-01 01:50:00,39.9,37.2,29.61,WNW,282,12.0,20.0,90,0.00,BKN,,0.02,WeatherDisplay:10.37,2013-01-01 01:50:00,
2013-01-01 02:00:00,39.9,37.2,29.60,WNW,283,7.0,13.0,90,0.00,BKN,,0.02,WeatherDisplay:10.37,2013-01-01 02:00:00,
2013-01-01 02:10:00,39.8,36.8,29.61,West,281,12.0,14.0,89,0.00,BKN,,0.02,WeatherDisplay:10.37,2013-01-01 02:10:00,
2013-01-01 02:20:00,39.9,36.7,29.61,WNW,288,13.0,16.0,88,0.00,BKN,,0.02,WeatherDisplay:10.37,2013-01-01 02:20:00,
2013-01-01 02:30:00,40.1,36.8,29.62,West,280,10.0,15.0,88,0.00,BKN,,0.02,WeatherDisplay:10.37,2013-01-01 02:30:00,
2013-01-01 02:40:00,40.4,37.1,29.63,WNW,290,9.0,18.0,88,0.00,BKN,,0.02,WeatherDisplay:10.37,2013-01-01 02:40:00,
2013-01-01 02:50:00,40.4,37.1,29.63,WNW,282,10.0,15.0,88,0.00,BKN,,0.02,WeatherDisplay:10.37,2013-01-01 02:50:00,
2013-01-01 03:00:00,40.3,37.0,29.64,WNW,294,6.0,14.0,88,0.00,BKN,,0.02,WeatherDisplay:10.37,2013-01-01 03:00:00,
2013-01-01 03:10:00,40.4,36.8,29.64,WNW,283,7.0,12.0,87,0.00,BKN,,0.02,WeatherDisplay:10.37,2013-01-01 03:10:00,
2013-01-01 03:20:00,40.2,36.6,29.65,WNW,292,2.0,8.0,87,0.00,BKN,,0.02,WeatherDisplay:10.37,2013-01-01 03:20:00,
2013-01-01 03:30:00,40.0,36.4,29.64,West,259,2.0,5.0,87,0.00,BKN,,0.02,WeatherDisplay:10.37,2013-01-01 03:30:00,
2013-01-01 03:40:00,39.7,36.2,29.64,WSW,251,3.0,5.0,87,0.00,BKN,,0.02,WeatherDisplay:10.37,2013-01-01 03:40:00,
2013-01-01 03:50:00,39.6,36.3,29.65,WNW,282,7.0,8.0,88,0.00,BKN,,0.02,WeatherDisplay:10.37,2013-01-01 03:50:00,
2013-01-01 04:00:00,39.5,36.5,29.65,West,279,6.0,9.0,89,0.00,BKN,,0.02,WeatherDisplay:10.37,2013-01-01 04:00:00,
2013-01-01 04:10:00,39.4,36.4,29.65,West,281,3.0,8.0,89,0.00,BKN,,0.02,WeatherDisplay:10.37,2013-01-01 04:10:00,
2013-01-01 04:20:00,39.2,36.3,29.66,WNW,286,0.0,5.0,89,0.00,BKN,,0.02,WeatherDisplay:10.37,2013-01-01 04:20:00,
2013-01-01 04:30:00,39.1,36.1,29.66,WNW,286,2.0,4.0,89,0.00,BKN,,0.02,WeatherDisplay:10.37,2013-01-01 04:30:00,
2013-01-01 04:40:00,38.9,35.9,29.66,WNW,284,2.0,9.0,89,0.00,SCT,,0.02,WeatherDisplay:10.37,2013-01-01 04:40:00,
2013-01-01 04:50:00,38.8,36.1,29.66,West,279,5.0,10.0,90,0.00,SCT,,0.02,WeatherDisplay:10.37,2013-01-01 04:50:00,
2013-01-01 05:00:00,38.7,36.0,29.67,West,274,2.0,8.0,90,0.00,SCT,,0.02,WeatherDisplay:10.37,2013-01-01 05:00:00,
2013-01-01 05:10:00,38.7,35.7,29.67,West,272,3.0,8.0,89,0.00,BKN,,0.02,WeatherDisplay:10.37,2013-01-01 05:10:00,
2013-01-01 05:20:00,38.6,35.9,29.67,WNW,296,5.0,9.0,90,0.00,BKN,,0.02,WeatherDisplay:10.37,2013-01-01 05:20:00,
2013-01-01 05:30:00,38.8,36.1,29.68,WNW,289,3.0,12.0,90,0.00,BKN,,0.02,WeatherDisplay:10.37,2013-01-01 05:30:00,
2013-01-01 05:40:00,38.8,35.8,29.70,WNW,285,3.0,9.0,89,0.00,SCT,,0.02,WeatherDisplay:10.37,2013-01-01 05:40:00,
2013-01-01 05:50:00,39.5,36.5,29.70,WNW,296,9.0,18.0,89,0.02,RA,,0.03,WeatherDisplay:10.37,2013-01-01 05:50:00,
2013-01-01 06:00:00,39.9,36.9,29.70,WNW,288,6.0,16.0,89,0.00,RA,,0.03,WeatherDisplay:10.37,2013-01-01 06:00:00,
2013-01-01 06:10:00,39.7,36.7,29.70,West,276,2.0,13.0,89,0.00,BKN,,0.03,WeatherDisplay:10.37,2013-01-01 06:10:00,
2013-01-01 06:20:00,39.5,36.5,29.71,West,275,2.0,5.0,89,0.00,BKN,,0.03,WeatherDisplay:10.37,2013-01-01 06:20:00,
2013-01-01 06:30:00,39.4,36.4,29.71,West,274,5.0,9.0,89,0.00,BKN,,0.03,WeatherDisplay:10.37,2013-01-01 06:30:00,
2013-01-01 06:40:00,39.3,36.7,29.71,West,268,5.0,8.0,90,0.00,SCT,,0.03,WeatherDisplay:10.37,2013-01-01 06:40:00,
2013-01-01 06:50:00,39.5,37.1,29.72,West,280,2.0,12.0,91,0.00,SCT,,0.03,WeatherDisplay:10.37,2013-01-01 06:50:00,
2013-01-01 07:00:00,39.5,37.1,29.72,West,268,6.0,14.0,91,0.00,SCT,,0.03,WeatherDisplay:10.37,2013-01-01 07:00:00,
2013-01-01 07:10:00,39.7,37.3,29.72,West,273,6.0,13.0,91,0.00,SCT,,0.03,WeatherDisplay:10.37,2013-01-01 07:10:00,
2013-01-01 07:20:00,40.1,37.6,29.73,West,277,5.0,12.0,91,0.00,SCT,,0.03,WeatherDisplay:10.37,2013-01-01 07:20:00,
2013-01-01 07:30:00,40.2,37.8,29.74,West,271,5.0,10.0,91,0.00,SCT,,0.03,WeatherDisplay:10.37,2013-01-01 07:30:00,
2013-01-01 07:40:00,40.2,37.5,29.74,West,273,7.0,10.0,90,0.00,FEW,,0.03,WeatherDisplay:10.37,2013-01-01 07:40:00,
2013-01-01 07:50:00,40.2,37.5,29.75,West,275,5.0,15.0,90,0.00,FEW,,0.03,WeatherDisplay:10.37,2013-01-01 07:50:00,
2013-01-01 08:00:00,40.2,37.5,29.76,WNW,284,7.0,13.0,90,0.00,FEW,,0.03,WeatherDisplay:10.37,2013-01-01 08:00:00,
2013-01-01 08:10:00,40.1,37.4,29.76,West,277,3.0,8.0,90,0.00,FEW,,0.03,WeatherDisplay:10.37,2013-01-01 08:10:00,
2013-01-01 08:20:00,40.0,37.4,29.77,WNW,283,5.0,9.0,90,0.00,FEW,,0.03,WeatherDisplay:10.37,2013-01-01 08:20:00,
2013-01-01 08:30:00,39.9,37.2,29.77,West,262,3.0,6.0,90,0.00,FEW,,0.03,WeatherDisplay:10.37,2013-01-01 08:30:00,
2013-01-01 08:40:00,39.8,37.1,29.77,West,273,1.0,6.0,90,0.00,SCT,,0.03,WeatherDisplay:10.37,2013-01-01 08:40:00,
2013-01-01 08:50:00,39.7,37.0,29.78,West,280,3.0,10.0,90,0.00,SCT,,0.03,WeatherDisplay:10.37,2013-01-01 08:50:00,
2013-01-01 09:00:00,39.6,36.9,29.79,WNW,286,7.0,10.0,90,0.00,SCT,,0.03,WeatherDisplay:10.37,2013-01-01 09:00:00,
2013-01-01 09:10:00,40.2,37.5,29.80,WNW,286,7.0,14.0,90,0.00,FEW,,0.03,WeatherDisplay:10.37,2013-01-01 09:10:00,
2013-01-01 09:20:00,40.4,37.7,29.81,WNW,286,6.0,12.0,90,0.00,FEW,,0.03,WeatherDisplay:10.37,2013-01-01 09:20:00,
2013-01-01 09:30:00,40.5,37.5,29.81,WNW,285,8.0,13.0,89,0.00,FEW,,0.03,WeatherDisplay:10.37,2013-01-01 09:30:00,
2013-01-01 09:40:00,40.6,37.6,29.82,WNW,289,7.0,12.0,89,0.00,FEW,,0.03,WeatherDisplay:10.37,2013-01-01 09:40:00,
2013-01-01 09:50:00,40.7,37.7,29.82,WNW,284,7.0,9.0,89,0.00,FEW,,0.03,WeatherDisplay:10.37,2013-01-01 09:50:00,
2013-01-01 10:00:00,40.8,37.8,29.83,WNW,283,6.0,10.0,89,0.00,FEW,,0.03,WeatherDisplay:10.37,2013-01-01 10:00:00,
2013-01-01 10:10:00,41.0,38.0,29.83,WNW,286,7.0,13.0,89,0.00,SCT,,0.03,WeatherDisplay:10.37,2013-01-01 10:10:00,
2013-01-01 10:20:00,41.3,38.3,29.84,WNW,283,7.0,12.0,89,0.00,SCT,,0.03,WeatherDisplay:10.37,2013-01-01 10:20:00,
2013-01-01 10:30:00,41.5,38.5,29.84,WNW,284,6.0,14.0,89,0.00,SCT,,0.03,WeatherDisplay:10.37,2013-01-01 10:30:00,
2013-01-01 10:40:00,41.7,38.4,29.84,WNW,290,7.0,12.0,88,0.00,BKN,,0.03,WeatherDisplay:10.37,2013-01-01 10:40:00,
2013-01-01 10:50:00,41.8,38.5,29.85,WNW,287,8.0,13.0,88,0.00,BKN,,0.03,WeatherDisplay:10.37,2013-01-01 10:50:00,
2013-01-01 11:00:00,41.9,38.6,29.86,WNW,289,7.0,15.0,88,0.00,BKN,,0.03,WeatherDisplay:10.37,2013-01-01 11:00:00,
2013-01-01 11:10:00,42.2,38.9,29.85,West,280,7.0,12.0,88,0.00,BKN,,0.03,WeatherDisplay:10.37,2013-01-01 11:10:00,
2013-01-01 11:20:00,42.5,39.2,29.86,WNW,287,6.0,10.0,88,0.00,BKN,,0.03,WeatherDisplay:10.37,2013-01-01 11:20:00,
2013-01-01 11:30:00,42.7,39.4,29.86,WNW,287,5.0,10.0,88,0.00,BKN,,0.03,WeatherDisplay:10.37,2013-01-01 11:30:00,
2013-01-01 11:40:00,43.1,39.5,29.87,WNW,285,8.0,13.0,87,0.00,BKN,,0.03,WeatherDisplay:10.37,2013-01-01 11:40:00,
2013-01-01 11:50:00,43.4,39.5,29.87,West,281,6.0,13.0,86,0.00,BKN,,0.03,WeatherDisplay:10.37,2013-01-01 11:50:00,
2013-01-01 12:00:00,43.8,39.6,29.88,WNW,288,8.0,13.0,85,0.00,BKN,,0.03,WeatherDisplay:10.37,2013-01-01 12:00:00,
2013-01-01 12:10:00,44.3,40.1,29.88,WNW,293,9.0,14.0,85,0.00,SCT,,0.03,WeatherDisplay:10.37,2013-01-01 12:10:00,
2013-01-01 12:20:00,44.7,40.4,29.88,West,277,5.0,15.0,85,0.00,SCT,,0.03,WeatherDisplay:10.37,2013-01-01 12:20:00,
2013-01-01 12:30:00,44.9,40.7,29.89,WNW,292,5.0,12.0,85,0.00,SCT,,0.03,WeatherDisplay:10.37,2013-01-01 12:30:00,
2013-01-01 12:40:00,45.2,41.3,29.88,West,266,3.0,12.0,86,0.00,BKN,,0.03,WeatherDisplay:10.37,2013-01-01 12:40:00,
2013-01-01 12:50:00,45.3,41.0,29.88,West,271,5.0,13.0,85,0.00,BKN,,0.03,WeatherDisplay:10.37,2013-01-01 12:50:00,
2013-01-01 13:00:00,45.5,41.3,29.89,WNW,282,7.0,10.0,85,0.00,BKN,,0.03,WeatherDisplay:10.37,2013-01-01 13:00:00,
2013-01-01 13:10:00,46.0,41.7,29.89,West,272,3.0,10.0,85,0.00,FEW,,0.03,WeatherDisplay:10.37,2013-01-01 13:10:00,
2013-01-01 13:20:00,46.1,41.9,29.89,West,270,6.0,18.0,85,0.00,FEW,,0.03,WeatherDisplay:10.37,2013-01-01 13:20:00,
2013-01-01 13:30:00,46.3,41.7,29.89,WNW,283,10.0,16.0,84,0.00,FEW,,0.03,WeatherDisplay:10.37,2013-01-01 13:30:00,
2013-01-01 13:40:00,46.6,41.7,29.89,WNW,284,7.0,18.0,83,0.00,FEW,,0.03,WeatherDisplay:10.37,2013-01-01 13:40:00,
2013-01-01 13:50:00,46.8,41.6,29.90,West,274,8.0,14.0,82,0.00,FEW,,0.03,WeatherDisplay:10.37,2013-01-01 13:50:00,
2013-01-01 14:00:00,47.3,40.7,29.90,West,281,7.0,15.0,78,0.00,FEW,,0.03,WeatherDisplay:10.37,2013-01-01 14:00:00,
2013-01-01 14:10:00,47.4,40.2,29.91,WNW,287,6.0,13.0,76,0.00,FEW,,0.03,WeatherDisplay:10.37,2013-01-01 14:10:00,
2013-01-01 14:20:00,47.2,40.4,29.91,WNW,282,7.0,14.0,77,0.00,FEW,,0.03,WeatherDisplay:10.37,2013-01-01 14:20:00,
2013-01-01 14:30:00,47.3,40.5,29.92,West,272,5.0,10.0,77,0.00,FEW,,0.03,WeatherDisplay:10.37,2013-01-01 14:30:00,
2013-01-01 14:40:00,47.1,40.9,29.92,West,277,6.0,10.0,79,0.00,FEW,,0.03,WeatherDisplay:10.37,2013-01-01 14:40:00,
2013-01-01 14:50:00,47.0,41.2,29.93,West,267,8.0,15.0,80,0.00,FEW,,0.03,WeatherDisplay:10.37,2013-01-01 14:50:00,
2013-01-01 15:00:00,46.8,40.6,29.93,West,279,8.0,15.0,79,0.00,FEW,,0.03,WeatherDisplay:10.37,2013-01-01 15:00:00,
2013-01-01 15:10:00,46.6,40.4,29.93,WNW,287,12.0,16.0,79,0.00,FEW,,0.03,WeatherDisplay:10.37,2013-01-01 15:10:00,
2013-01-01 15:20:00,46.4,40.2,29.93,WNW,282,8.0,14.0,79,0.00,FEW,,0.03,WeatherDisplay:10.37,2013-01-01 15:20:00,
2013-01-01 15:30:00,46.2,39.7,29.94,West,271,6.0,14.0,78,0.00,FEW,,0.03,WeatherDisplay:10.37,2013-01-01 15:30:00,
2013-01-01 15:40:00,46.1,39.9,29.94,West,268,6.0,9.0,79,0.00,SCT,,0.03,WeatherDisplay:10.37,2013-01-01 15:40:00,
2013-01-01 15:50:00,46.0,40.2,29.95,WSW,240,3.0,6.0,80,0.00,SCT,,0.03,WeatherDisplay:10.37,2013-01-01 15:50:00,
2013-01-01 16:00:00,46.0,40.5,29.96,SW,233,2.0,9.0,81,0.00,SCT,,0.03,WeatherDisplay:10.37,2013-01-01 16:00:00,
2013-01-01 16:10:00,46.0,40.5,29.96,WSW,253,5.0,8.0,81,0.00,BKN,,0.03,WeatherDisplay:10.37,2013-01-01 16:10:00,
2013-01-01 16:20:00,46.0,40.5,29.96,WSW,249,2.0,10.0,81,0.00,BKN,,0.03,WeatherDisplay:10.37,2013-01-01 16:20:00,
2013-01-01 16:30:00,46.0,40.8,29.97,WSW,248,5.0,10.0,82,0.00,BKN,,0.03,WeatherDisplay:10.37,2013-01-01 16:30:00,
2013-01-01 16:40:00,45.9,41.0,29.97,WSW,248,3.0,9.0,83,0.00,BKN,,0.03,WeatherDisplay:10.37,2013-01-01 16:40:00,
2013-01-01 16:50:00,45.7,41.1,29.97,West,263,1.0,4.0,84,0.00,BKN,,0.03,WeatherDisplay:10.37,2013-01-01 16:50:00,
2013-01-01 17:00:00,45.5,40.9,29.98,West,260,2.0,6.0,84,0.00,BKN,,0.03,WeatherDisplay:10.37,2013-01-01 17:00:00,
2013-01-01 17:10:00,45.3,41.1,29.98,WSW,239,3.0,4.0,85,0.00,BKN,,0.03,WeatherDisplay:10.37,2013-01-01 17:10:00,
2013-01-01 17:20:00,45.1,41.2,29.98,WNW,284,8.0,14.0,86,0.00,BKN,,0.03,WeatherDisplay:10.37,2013-01-01 17:20:00,
2013-01-01 17:30:00,45.0,41.1,29.99,WNW,291,8.0,13.0,86,0.00,BKN,,0.03,WeatherDisplay:10.37,2013-01-01 17:30:00,
2013-01-01 17:40:00,45.0,40.8,29.99,WNW,289,5.0,10.0,85,0.00,BKN,,0.03,WeatherDisplay:10.37,2013-01-01 17:40:00,
2013-01-01 17:50:00,45.0,40.8,30.00,WNW,284,5.0,8.0,85,0.00,BKN,,0.03,WeatherDisplay:10.37,2013-01-01 17:50:00,
2013-01-01 18:00:00,45.0,40.8,30.00,WNW,283,2.0,6.0,85,0.00,BKN,,0.03,WeatherDisplay:10.37,2013-01-01 18:00:00,
2013-01-01 18:10:00,45.0,41.1,30.01,West,274,1.0,3.0,86,0.00,BKN,,0.03,WeatherDisplay:10.37,2013-01-01 18:10:00,
2013-01-01 18:20:00,45.0,41.1,30.01,West,274,0.0,3.0,86,0.00,BKN,,0.03,WeatherDisplay:10.37,2013-01-01 18:20:00,
2013-01-01 18:30:00,45.0,41.0,30.02,West,274,2.0,3.0,86,0.00,BKN,,0.03,WeatherDisplay:10.37,2013-01-01 18:30:00,
2013-01-01 18:40:00,44.9,41.3,30.02,West,267,0.0,5.0,87,0.00,BKN,,0.03,WeatherDisplay:10.37,2013-01-01 18:40:00,
2013-01-01 18:50:00,44.9,41.2,30.03,WSW,254,3.0,5.0,87,0.00,BKN,,0.03,WeatherDisplay:10.37,2013-01-01 18:50:00,
2013-01-01 19:00:00,44.8,41.5,30.04,SW,235,1.0,5.0,88,0.00,BKN,,0.03,WeatherDisplay:10.37,2013-01-01 19:00:00,
2013-01-01 19:10:00,44.8,41.5,30.04,WSW,238,0.0,5.0,88,0.00,BKN,,0.03,WeatherDisplay:10.37,2013-01-01 19:10:00,
2013-01-01 19:20:00,44.9,41.6,30.04,WSW,238,0.0,4.0,88,0.00,BKN,,0.03,WeatherDisplay:10.37,2013-01-01 19:20:00,
2013-01-01 19:30:00,44.9,41.6,30.05,WSW,238,0.0,3.0,88,0.00,BKN,,0.03,WeatherDisplay:10.37,2013-01-01 19:30:00,
2013-01-01 19:40:00,44.9,41.6,30.05,WSW,238,1.0,3.0,88,0.00,BKN,,0.03,WeatherDisplay:10.37,2013-01-01 19:40:00,
2013-01-01 19:50:00,44.9,41.9,30.05,WSW,238,0.0,4.0,89,0.00,BKN,,0.03,WeatherDisplay:10.37,2013-01-01 19:50:00,
2013-01-01 20:00:00,44.9,41.9,30.05,WSW,238,0.0,3.0,89,0.00,BKN,,0.03,WeatherDisplay:10.37,2013-01-01 20:00:00,
2013-01-01 20:10:00,45.0,42.2,30.05,WSW,238,2.0,5.0,90,0.00,BKN,,0.03,WeatherDisplay:10.37,2013-01-01 20:10:00,
2013-01-01 20:20:00,45.3,42.8,30.05,WSW,243,3.0,5.0,91,0.00,BKN,,0.03,WeatherDisplay:10.37,2013-01-01 20:20:00,
2013-01-01 20:30:00,45.6,43.1,30.06,WSW,254,3.0,6.0,91,0.00,BKN,,0.03,WeatherDisplay:10.37,2013-01-01 20:30:00,
2013-01-01 20:40:00,45.6,43.4,30.06,West,273,2.0,5.0,92,0.00,BKN,,0.03,WeatherDisplay:10.37,2013-01-01 20:40:00,
2013-01-01 20:50:00,45.7,43.5,30.07,West,263,0.0,5.0,92,0.00,BKN,,0.03,WeatherDisplay:10.37,2013-01-01 20:50:00,
2013-01-01 21:00:00,45.7,43.5,30.07,WSW,244,1.0,5.0,92,0.00,BKN,,0.03,WeatherDisplay:10.37,2013-01-01 21:00:00,
2013-01-01 21:10:00,45.7,43.5,30.07,WSW,245,1.0,4.0,92,0.00,BKN,,0.03,WeatherDisplay:10.37,2013-01-01 21:10:00,
2013-01-01 21:20:00,45.7,43.5,30.07,WSW,245,0.0,1.0,92,0.00,BKN,,0.03,WeatherDisplay:10.37,2013-01-01 21:20:00,
2013-01-01 21:30:00,45.7,43.8,30.07,WSW,245,1.0,4.0,93,0.00,BKN,,0.03,WeatherDisplay:10.37,2013-01-01 21:30:00,
2013-01-01 21:40:00,45.6,43.7,30.07,WSW,245,1.0,3.0,93,0.00,BKN,,0.03,WeatherDisplay:10.37,2013-01-01 21:40:00,
2013-01-01 21:50:00,45.7,43.8,30.07,WSW,245,1.0,3.0,93,0.00,BKN,,0.03,WeatherDisplay:10.37,2013-01-01 21:50:00,
2013-01-01 22:00:00,45.9,44.0,30.07,WSW,248,2.0,9.0,93,0.00,BKN,,0.03,WeatherDisplay:10.37,2013-01-01 22:00:00,
2013-01-01 22:10:00,46.2,44.3,30.07,WSW,239,6.0,12.0,93,0.00,-DZ,,0.03,WeatherDisplay:10.37,2013-01-01 22:10:00,
2013-01-01 22:20:00,46.3,44.4,30.07,WSW,253,3.0,8.0,93,0.00,-DZ,,0.03,WeatherDisplay:10.37,2013-01-01 22:20:00,
2013-01-01 22:30:00,46.4,44.8,30.08,WSW,252,2.0,6.0,94,0.00,-DZ,,0.03,WeatherDisplay:10.37,2013-01-01 22:30:00,
2013-01-01 22:40:00,46.4,44.8,30.08,WSW,245,2.0,8.0,94,0.00,-DZ,,0.03,WeatherDisplay:10.37,2013-01-01 22:40:00,
2013-01-01 22:50:00,46.4,44.8,30.08,SW,236,0.0,4.0,94,0.00,-DZ,,0.03,WeatherDisplay:10.37,2013-01-01 22:50:00,
2013-01-01 23:00:00,46.4,44.8,30.08,SW,236,0.0,3.0,94,0.00,-DZ,,0.03,WeatherDisplay:10.37,2013-01-01 23:00:00,
2013-01-01 23:10:00,46.5,44.9,30.08,SW,224,1.0,6.0,94,0.00,-DZ,,0.03,WeatherDisplay:10.37,2013-01-01 23:10:00,
2013-01-01 23:20:00,46.7,45.1,30.08,SSW,212,2.0,6.0,94,0.00,-DZ,,0.03,WeatherDisplay:10.37,2013-01-01 23:20:00,
2013-01-01 23:30:00,46.8,45.2,30.08,SW,217,2.0,6.0,94,0.00,-DZ,,0.03,WeatherDisplay:10.37,2013-01-01 23:30:00,
2013-01-01 23:40:00,46.9,45.2,30.07,SSW,198,3.0,6.0,94,0.01,-DZ,,0.04,WeatherDisplay:10.37,2013-01-01 23:40:00,
2013-01-01 23:50:00,46.9,45.5,30.07,South,189,3.0,8.0,95,0.00,-DZ,,0.04,WeatherDisplay:10.37,2013-01-01 23:50:00,